Puebla, Mexico

11:27 PM CDT on August 17, 2017 (GMT -0500)
Hermanos Serdan International

Weather History for MMPB - November, 2011

Change the Weather History Date:

Tuesday, November 1, 2011

  Actual Average Record
Temperature  
Mean Temperature 54 °F -  
Max Temperature 72 °F 69 °F 79 °F (2016)
Min Temperature 37 °F 46 °F 33 °F (2011)
Degree Days  
Heating Degree Days 10    
Growing Degree Days 4 (Base 50)    
Moisture  
Dew Point 37 °F    
Average Humidity 43    
Maximum Humidity 79    
Minimum Humidity 19    
Precipitation  
Precipitation 0.00 in - - ()
Sea Level Pressure  
Sea Level Pressure 30.20 in    
Wind  
Wind Speed 5 mph ()    
Max Wind Speed 20 mph    
Max Gust Speed -    
Visibility 12.4 miles    
Events      
Averages and records for this station are not official NWS values.
T = Trace of Precipitation, MM = Missing Value Source: Averaged Metar Reports

Daily Weather History Graph

Daily Weather History Graph

Search for Another Location

Airport or City:

Trip Planner

Search our weather history database for the weather conditions in past years. The results will help you decide how hot, cold, wet, or windy it might be!

Date:

Astronomy

Nov. 01, 2011 Rise Set
Actual Time 6:33 AM CST 5:59 PM CST
Civil Twilight 6:10 AM CST 6:21 PM CST
Nautical Twilight 5:44 AM CST 6:47 PM CST
Astronomical Twilight 5:18 AM CST 7:13 PM CST
Moon 12:12 PM CST (11/1) 11:48 PM CST (11/1)
Length of Visible Light 12h 11m
Length of Day
11h 26m
Waxing Crescent, 40% of the Moon is Illuminated
Nov 1
Waxing Crescent
Nov 2
First Quarter
Nov 10
Full
Nov 18
Last Quarter
Nov 25
New

Hourly Weather History & Observations

Time (CST) Temp. Windchill Dew Point Humidity Pressure Visibility Wind Dir Wind Speed Gust Speed Precip Events Conditions
5:45 AM 39 °F - 29 °F 57% 30.06 in 3 mi Calm Calm - -  
7:08 AM 33.8 °F 27.7 °F 24.8 °F 70% 30.36 in 15.0 mi NNW 6.9 mph - N/A   Clear
7:49 AM 39.2 °F 35.0 °F 26.6 °F 61% 30.37 in 15.0 mi North 5.8 mph - N/A   Clear
8:45 AM 48.2 °F - 24.8 °F 40% 30.37 in 15.0 mi NNW 6.9 mph - N/A   Clear
8:50 AM 50 °F - 33 °F 40% 30.14 in 3 mi Calm Calm - -   Haze
9:46 AM 59.0 °F - 30.2 °F 34% 30.36 in 15.0 mi ESE 3.5 mph - N/A   Clear
10:47 AM 62.6 °F - 32.0 °F 32% 30.35 in 15.0 mi SSE 6.9 mph - N/A   Clear
11:43 AM 66.2 °F - 32.0 °F 28% 30.34 in 15.0 mi South 6.9 mph - N/A   Clear
11:50 AM 67 °F - 34 °F 19% 30.06 in 12 mi North 2.2 mph - -  
12:45 PM 68.0 °F - 35.6 °F 30% 30.30 in 15.0 mi South 9.2 mph - N/A   Clear
1:47 PM 71.6 °F - 37.4 °F 29% 30.27 in 15.0 mi South 19.6 mph - N/A   Clear
2:40 PM 71 °F - 39 °F 20% 29.91 in 12 mi ESE 2.2 mph - -   Scattered Clouds
2:46 PM 73.4 °F - 39.2 °F 29% 30.26 in 15.0 mi South 10.4 mph - N/A   Clear
3:49 PM 71.6 °F - 41.0 °F 33% 30.26 in 15.0 mi SSW 11.5 mph - N/A   Clear
4:43 PM 69.8 °F - 42.8 °F 38% 30.27 in 15.0 mi SSW 10.4 mph - N/A   Clear
5:40 PM 67 °F - 42 °F 28% 29.82 in 12 mi SE 2.2 mph - -   Scattered Clouds
5:46 PM 64.4 °F - 42.8 °F 45% 30.27 in 15.0 mi SSW 10.4 mph - N/A   Clear
6:50 PM 59.0 °F - 41.0 °F 51% 30.29 in 15.0 mi SW 6.9 mph - N/A   Clear
7:45 PM 53.6 °F - 41.0 °F 62% 30.32 in 15.0 mi South 8.1 mph - N/A   Clear
8:46 PM 51.8 °F - 44.6 °F 76% 30.34 in 15.0 mi SSE 5.8 mph - N/A   Clear
8:55 PM 59 °F - 46 °F 52% 29.80 in 3 mi ENE 2.2 mph - -  
11:58 PM 51 °F - 46 °F 79% 29.88 in 3 mi ENE 2.2 mph - -